RH
80 80 77 75 74 75 74 70 63 56 51 47 47 46 44 42 40 40 39 38 39 41 43 44 46 47 47 48 48 48 48 48 47 46 45 44 43 42 42 41 39 38 35 32 30 28 26 25 24 22 21 21
77 80 80 77 73 70 66 61 56 51 48 48 48 44 39 38 39 39 40 41 42 44 45 47 49 51 52 51 50 48 47 46 44 43 42 41 40 39 38 37 36 35 34 33 31 30 28 27 26 24 22 21
70 72 72 70 67 63 59 55 52 50 51 52 48 41 39 41 43 43 44 46 47 48 50 52 54 55 54 52 49 46 45 43 42 41 40 39 38 37 37 36 35 35 34 33 32 31 29 28 27 25 24 22
75 74 74 74 73 70 66 62 60 58 56 52 46 41 41 47 53 53 53 53 54 54 55 56 56 56 54 52 49 46 44 42 41 41 40 40 39 39 38 38 37 36 36 35 34 32 31 30 28 27 25 23
79 77 77 77 76 74 69 65 61 56 52 47 44 44 51 60 66 66 63 62 61 61 61 61 59 58 57 55 52 48 46 44 43 42 43 43 43 43 42 42 41 40 39 39 37 36 35 33 31 29 27 25
72 69 67 65 63 59 55 52 50 49 49 50 52 57 65 72 74 72 70 69 68 68 68 67 65 62 60 57 55 51 49 47 46 46 47 47 47 47 46 45 45 44 43 42 41 40 38 37 35 33 31 29
58 57 55 53 51 50 49 50 52 54 57 61 64 69 73 75 75 74 73 73 72 72 72 71 68 65 62 59 57 55 54 52 51 51 51 51 51 50 50 49 48 48 47 45 44 43 41 40 39 37 35 33
60 59 58 57 57 58 59 60 62 64 67 70 73 75 76 76 76 76 75 75 76 75 74 71 68 65 63 61 59 58 57 55 55 55 55 55 54 54 53 52 52 50 49 47 46 45 44 43 42 40 38 36
67 67 67 68 68 68 67 68 70 73 75 77 78 77 78 79 79 79 79 80 79 77 74 70 68 66 64 63 62 61 60 60 59 59 59 59 58 57 57 56 55 53 51 49 47 46 45 44 43 41 40 38
73 74 75 76 75 74 74 75 76 77 78 79 79 81 83 84 84 83 82 81 78 74 71 69 68 67 66 65 66 65 64 64 64 63 63 62 62 61 60 58 56 54 51 49 47 45 44 43 42 41 39 37
83 82 82 82 81 80 79 78 79 80 82 83 84 86 87 85 83 81 79 77 74 72 70 70 69 69 69 69 69 69 68 68 67 67 66 65 65 62 60 57 54 51 49 46 44 43 42 41 40 38 35 32
91 88 87 86 84 83 83 83 84 86 87 88 88 87 84 80 78 75 73 72 72 71 70 70 70 70 71 71 71 70 70 69 68 67 65 63 61 57 54 51 48 46 45 43 42 41 40 38 35 31 27 24
92 90 89 89 89 89 89 90 91 91 90 88 84 81 77 73 71 70 70 70 70 70 70 70 69 69 68 68 67 66 65 63 61 58 55 53 51 48 46 44 44 43 42 40 39 36 33 30 27 24 22 20
94 94 94 95 95 96 95 93 92 90 86 81 77 74 72 70 69 69 69 69 69 68 67 65 63 62 59 57 55 54 53 50 48 47 44 43 42 41 41 40 39 38 37 33 31 29 26 24 23 22 21 20
95 96 96 95 94 93 91 88 84 80 77 74 72 71 70 69 68 66 65 64 62 59 56 54 51 48 45 44 43 43 43 42 41 41 39 38 37 36 35 34 33 32 31 30 28 28 27 27 26 26 25 24
92 91 90 87 85 82 80 78 75 73 71 70 68 66 64 62 59 56 53 51 48 45 43 42 40 39 39 39 39 39 40 39 39 38 38 37 36 36 35 35 36 36 36 35 34 34 35 35 34 33 31 30
83 80 78 77 75 73 72 70 67 65 61 58 55 52 49 46 44 42 41 40 39 39 39 40 40 41 41 42 43 43 42 43 43 43 43 43 43 43 42 42 42 42 42 40 39 39 40 40 39 38 37 35
75 73 70 68 65 62 59 55 51 48 45 42 40 39 39 39 40 40 42 43 44 45 46 47 49 50 51 52 52 52 51 52 51 50 49 48 47 47 46 45 43 42 41 40 39 39 38 38 38 37 37 35
60 57 53 50 48 45 43 42 41 40 40 41 42 44 46 48 50 52 54 55 56 57 57 57 58 58 59 60 61 60 58 57 55 53 51 49 48 46 45 44 43 42 40 39 38 37 37 36 35 35 35 33
43 42 42 42 42 43 43 44 46 47 49 51 53 56 58 61 62 65 67 67 67 67 66 64 63 62 62 63 62 61 59 58 56 54 52 51 49 47 47 46 45 45 43 42 40 39 38 36 34 34 34 34
46 48 49 51 52 52 52 53 53 54 55 57 58 60 61 62 63 64 65 65 64 63 61 60 60 59 60 61 61 61 61 59 57 54 53 53 52 51 51 51 50 48 46 45 44 42 41 38 35 33 34 35
58 59 59 59 58 56 54 53 51 50 49 49 49 50 50 50 51 52 53 54 54 54 54 54 55 56 58 60 61 62 62 61 58 55 54 55 55 54 53 54 54 53 49 46 44 42 40 37 34 33 33 33
58 56 53 50 46 44 41 39 38 37 38 39 40 41 43 45 46 49 51 53 54 55 55 55 56 57 59 61 62 62 62 60 58 55 54 54 54 55 55 54 54 53 50 45 41 39 36 34 32 32 31 31
43 40 38 36 35 34 34 35 37 39 41 44 46 49 51 53 54 56 57 57 58 58 58 57 57 58 59 61 63 63 63 60 58 56 54 53 53 54 54 54 52 50 48 45 42 40 38 38 37 36 34 34
37 38 38 39 40 42 43 45 49 52 55 58 60 62 63 65 65 65 65 65 66 65 65 64 63 64 64 65 67 66 65 63 60 58 57 55 55 55 55 54 53 50 47 47 47 45 43 42 42 42 40 39
45 47 47 48 48 49 50 50 53 56 58 61 63 64 66 68 69 70 71 71 72 72 72 72 72 73 73 73 73 72 70 69 67 65 63 61 59 57 57 56 55 53 50 50 50 48 46 44 43 44 43 43
44 44 43 42 41 40 40 40 40 42 43 44 46 46 48 51 53 56 58 61 63 66 67 69 71 74 76 77 77 77 77 75 73 70 66 63 61 59 57 56 55 53 50 48 45 42 40 39 38 37 36 36
34 34 33 33 33 33 33 33 33 33 34 33 34 34 33 34 35 37 38 40 42 45 47 50 54 58 62 66 68 69 69 68 65 62 59 56 54 52 50 48 46 43 39 36 33 30 27 26 26 26 25 24
33 34 35 35 36 36 36 37 37 36 36 36 36 36 36 35 35 35 35 35 35 35 35 37 38 40 42 44 45 46 46 46 45 43 42 41 39 38 36 35 33 31 29 26 25 24 23 22 22 23 23 22
38 38 38 39 39 40 40 40 40 40 40 40 40 40 40 40 39 39 39 39 39 38 38 38 38 38 38 38 37 37 36 35 34 34 32 32 31 31 30 30 30 30 30 29 27 26 26 26 25 25 26 26
39 39 39 40 40 41 41 41 42 42 42 43 43 44 44 44 44 43 43 43 43 43 43 43 42 42 41 41 40 39 38 37 36 35 35 34 33 33 33 33 33 33 34 33 32 31 30 29 28 27 28 28
Wind_Speed
82 82 82 82 83 83 83 83 84 85 85 86 87 87 88 89 91 92 92 91 90 89 89 89 89 90 90 91 91 92 92 93 93 94 94 95 95 96 96 97 97 98 98 99 100 100 100 100 100 100 100 100
84 84 84 85 85 86 86 87 88 88 88 88 89 89 91 92 93 93 93 92 92 92 91 91 92 92 93 94 94 95 96 97 97 98 98 99 99 100 100 100 101 101 102 102 103 103 103 103 102 102 102 102
86 86 86 86 87 88 88 89 90 90 90 90 91 92 94 95 95 95 94 94 94 94 94 95 95 96 97 97 98 99 100 101 101 102 102 103 103 103 103 104 104 104 104 105 105 105 105 104 104 104 104 103
87 87 88 88 89 89 90 91 91 92 93 94 95 96 98 98 97 97 97 97 98 98 98 99 99 100 100 101 102 103 103 104 105 105 106 106 106 106 106 106 106 106 106 106 106 106 106 106 105 105 105 104
90 90 91 92 93 93 94 94 95 95 96 97 98 100 100 100 99 100 101 101 101 102 102 102 102 103 103 104 106 106 107 107 107 108 107 107 107 107 107 107 107 107 107 107 107 107 107 107 106 106 106 105
94 94 95 96 97 97 97 98 98 99 100 101 102 103 103 103 103 104 104 104 104 103 103 104 105 106 107 108 109 109 110 110 109 109 109 109 109 109 109 108 108 108 108 108 108 108 108 108 108 108 107 107
97 97 98 99 99 100 100 101 102 102 103 104 105 105 106 106 106 106 105 105 105 105 106 107 108 109 110 111 112 112 112 112 111 111 110 110 110 110 110 110 110 110 110 110 110 110 110 109 109 109 108 108
99 100 101 101 102 103 104 104 105 105 106 106 107 107 108 108 108 107 107 107 108 109 110 111 113 113 114 114 114 114 114 113 113 112 112 112 111 111 111 112 112 112 112 112 112 111 111 111 110 110 109 108
102 103 104 105 105 106 107 107 107 107 108 108 109 109 109 109 109 109 109 110 112 114 115 116 116 116 116 116 116 116 115 115 114 114 114 113 113 113 113 113 113 114 114 113 113 113 112 111 111 110 109 108
106 106 107 108 109 109 109 109 109 109 110 110 111 111 111 111 112 113 114 116 117 118 119 119 119 119 118 118 118 117 117 116 116 116 115 115 115 115 115 115 115 115 115 115 114 113 112 112 110 109 108 107
109 110 110 111 111 111 111 111 111 112 112 113 113 114 115 116 117 118 120 120 121 121 121 121 121 120 120 119 119 119 118 118 118 117 117 117 117 117 117 117 116 116 115 115 114 113 112 111 110 109 107 106
112 112 113 113 113 113 113 113 114 115 115 116 117 119 120 122 123 123 124 124 124 124 124 123 122 122 121 121 120 120 120 119 119 119 118 118 118 118 117 117 116 115 114 113 113 111 110 109 109 108 107 106
114 114 115 115 115 116 116 117 118 119 120 122 123 125 126 127 127 127 127 126 126 125 125 125 124 123 123 122 122 121 121 120 120 119 118 118 118 117 116 115 114 113 113 112 111 110 109 109 108 107 106 105
117 117 117 118 119 120 121 122 123 125 126 127 128 129 130 130 129 129 128 127 127 126 126 125 125 124 124 123 122 121 120 120 119 118 117 117 116 115 114 114 113 112 111 111 110 109 109 108 108 107 106 105
121 121 122 123 124 125 127 128 129 130 130 131 131 131 131 131 130 129 129 128 127 126 126 125 124 123 123 122 121 120 119 118 118 117 116 116 115 114 113 113 112 111 111 110 110 109 108 108 108 107 107 106
126 127 128 129 130 130 131 132 132 132 132 132 131 131 130 130 129 128 127 127 126 125 124 123 122 121 121 120 119 119 118 117 117 116 116 115 115 114 113 112 112 111 111 111 110 109 109 109 108 108 108 107
131 132 132 133 133 133 133 133 133 132 132 131 130 129 129 128 127 126 125 124 123 123 122 121 120 120 120 119 119 118 118 117 117 116 116 115 115 114 113 112 112 112 111 111 110 110 109 109 109 109 108 108
133 133 133 133 132 132 131 131 130 130 129 128 127 126 125 125 124 123 122 122 122 121 121 120 120 120 119 119 119 119 118 117 117 117 116 115 115 114 113 113 112 112 111 111 110 110 110 110 109 109 109 109
131 130 130 129 128 128 128 127 127 126 126 125 124 124 123 122 122 122 121 121 121 121 121 121 120 120 120 120 120 119 119 118 118 117 116 115 115 114 113 112 112 111 111 111 110 110 110 109 109 108 108 108
126 126 126 125 125 125 125 125 124 124 123 123 123 122 122 122 122 122 122 122 122 122 122 122 121 121 121 120 120 120 119 118 118 117 116 115 114 113 112 111 111 110 110 109 109 109 108 108 108 107 107 107
124 124 124 124 124 124 124 124 123 123 123 123 123 123 123 123 123 123 123 123 123 122 122 122 121 121 120 120 120 119 118 117 117 116 115 114 113 112 111 110 110 109 109 108 107 107 107 106 106 105 104 104
124 124 124 124 124 124 124 124 124 123 123 123 122 122 122 121 121 121 121 121 121 120 120 120 119 119 118 118 118 117 117 116 115 114 113 113 112 111 110 109 109 108 108 107 106 105 105 104 103 103 102 102
124 125 125 125 124 123 123 122 121 120 120 119 118 118 117 117 117 117 117 117 117 117 117 117 116 116 116 116 116 116 115 115 114 113 113 112 111 110 109 109 108 107 107 106 105 104 103 102 102 101 100 100
123 123 122 121 120 119 118 117 116 116 115 114 114 114 113 114 114 114 114 114 114 115 115 115 115 115 115 115 115 115 115 114 114 113 112 111 110 109 109 108 107 107 106 105 104 104 102 101 101 100 100 99
119 119 118 117 117 116 115 114 114 114 113 113 113 113 113 113 113 114 114 114 114 114 114 114 114 114 114 114 114 114 114 114 113 113 112 111 110 109 108 108 108 107 106 105 104 104 103 102 101 101 100 99
117 117 117 116 116 116 116 115 115 115 115 115 115 115 115 115 115 115 115 115 115 115 115 115 114 114 114 114 114 114 114 114 113 113 112 112 111 110 109 109 108 108 107 106 105 105 104 103 102 102 101 101
116 116 116 116 116 116 116 115 115 115 115 116 116 116 116 116 117 117 117 117 117 117 117 116 116 116 116 116 116 116 116 116 115 115 114 113 112 112 111 110 109 109 108 108 107 106 105 104 103 103 102 102
115 115 115 114 114 114 114 114 113 113 114 114 114 114 114 114 115 115 115 116 116 116 116 117 117 117 117 117 117 118 117 117 117 116 115 115 114 113 112 111 110 110 109 108 107 106 104 102 101 101 101 100
114 114 114 114 114 113 113 114 114 114 113 114 114 114 114 114 114 114 114 114 114 114 114 114 115 115 115 116 116 117 117 117 117 116 115 114 113 112 110 109 108 107 106 105 104 102 100 99 97 96 96 96
115 115 115 115 115 115 115 115 115 115 115 115 115 115 115 116 116 115 115 115 115 115 114 114 115 114 114 114 114 115 115 114 114 113 112 111 110 109 108 106 105 104 104 103 102 101 99 98 97 95 95 95
118 118 118 118 118 118 118 118 118 118 117 117 117 117 117 117 118 118 117 117 117 117 117 117 117 117 117 117 117 116 116 116 115 114 112 111 110 109 108 107 106 105 105 105 104 103 102 101 100 99 97 97
Wind_Direction
266 266 265 265 265 265 265 266 267 268 268 269 270 272 273 275 276 276 276 275 274 274 273 273 273 273 273 273 273 273 273 273 273 273 272 272 272 271 271 271 271 271 271 271 271 271 271 271 270 269 268 267
266 266 266 266 266 266 266 267 267 268 269 269 271 272 275 276 277 276 275 275 274 273 273 273 273 274 274 274 275 275 275 275 275 274 274 273 273 273 273 273 273 273 273 273 273 273 273 272 272 271 270 269
266 266 267 267 267 267 267 267 268 269 269 270 271 273 275 277 276 275 274 273 273 273 273 273 274 275 275 276 276 276 276 276 276 276 275 275 275 275 274 274 274 274 274 274 274 274 273 273 272 272 271 270
267 267 267 268 268 268 269 269 269 269 270 270 271 273 275 276 275 274 273 273 273 273 274 275 276 276 276 276 277 277 277 277 277 277 276 276 276 276 276 275 275 275 275 275 275 274 274 274 273 272 271 271
268 268 268 268 269 269 270 270 270 270 270 271 272 273 274 274 274 273 273 273 274 275 275 276 276 276 276 276 276 276 277 277 277 277 277 277 276 276 276 276 276 275 275 275 275 275 275 274 274 274 273 272
269 269 269 270 270 270 270 271 271 271 272 272 272 273 273 273 273 274 274 274 275 275 276 276 275 275 275 276 276 277 277 277 277 277 276 276 276 276 276 276 276 276 275 275 275 275 275 275 275 275 274 273
270 270 270 271 271 271 271 271 271 272 272 272 272 273 273 273 274 274 274 274 274 275 275 275 275 275 276 276 276 277 277 277 276 276 276 276 276 276 276 276 275 275 275 275 275 275 275 275 275 275 274 274
270 271 271 271 271 271 271 271 271 271 272 272 272 272 273 273 273 273 273 274 274 274 275 275 275 275 276 276 276 276 276 276 276 276 275 275 275 275 275 275 275 275 275 275 275 274 274 274 274 274 274 274
271 271 271 272 272 272 272 272 272 272 272 272 272 272 272 273 273 273 274 274 275 275 275 275 275 275 275 275 275 275 275 275 275 275 275 275 274 274 274 274 274 274 274 274 274 274 274 274 273 273 273 272
272 272 272 272 272 272 272 272 272 272 272 272 272 272 272 273 273 274 274 275 275 275 275 275 275 275 275 275 274 274 274 274 274 274 274 274 273 273 273 273 273 273 273 273 273 273 273 272 272 272 271 271
272 272 272 272 272 272 272 272 272 272 272 272 273 273 273 274 274 274 275 275 275 275 275 274 274 274 274 274 274 274 274 273 273 273 273 273 273 272 272 272 272 272 272 272 272 272 271 271 271 270 270 270
272 272 272 272 272 272 272 273 273 273 273 273 273 274 274 274 274 274 274 274 274 274 274 274 274 274 273 273 273 273 273 273 272 272 272 272 272 272 272 272 272 271 271 271 271 271 271 270 270 270 269 269
271 271 272 272 272 273 273 273 273 273 273 274 274 274 274 275 275 274 274 274 274 274 274 273 273 273 273 272 272 272 272 272 272 271 271 271 271 271 271 271 271 271 271 271 270 270 270 270 269 269 268 268
271 272 272 272 273 273 273 273 273 274 274 274 274 274 275 274 274 274 274 274 273 273 273 273 273 272 272 272 272 271 271 271 271 271 271 270 270 270 270 270 270 270 270 270 270 269 269 269 269 268 268 267
272 272 273 273 273 273 273 274 274 274 274 274 274 274 274 274 274 273 273 273 273 273 272 272 272 272 271 271 271 271 270 270 270 270 270 270 270 269 269 269 269 269 269 269 269 269 268 268 268 268 267 267
273 273 273 273 273 273 274 274 274 274 274 273 273 273 273 273 273 273 273 272 272 272 272 272 271 271 271 271 271 270 270 270 270 269 269 269 269 269 269 269 268 268 268 268 268 267 267 267 267 267 267 266
273 273 273 273 273 273 273 273 273 273 273 273 273 272 272 272 272 272 272 272 272 272 271 271 271 271 271 271 270 270 270 270 269 269 269 269 269 269 269 268 268 268 267 267 267 266 266 266 266 266 266 266
273 273 273 273 273 273 273 273 273 273 273 272 272 272 272 272 272 272 272 272 271 271 271 271 271 271 270 270 270 270 270 270 269 269 269 269 268 268 268 268 268 267 267 267 266 266 266 265 265 265 265 265
273 273 273 273 273 273 273 273 272 272 272 272 272 272 272 272 272 272 272 272 272 271 271 271 271 271 270 270 270 270 269 269 269 269 269 269 268 268 268 268 267 267 267 267 266 266 265 265 265 264 264 264
273 273 273 273 273 273 272 272 273 273 273 273 273 273 273 273 273 272 272 272 272 272 272 271 271 271 270 270 270 270 269 269 269 269 269 269 269 268 268 268 268 267 267 267 266 266 265 265 264 264 264 263
274 274 274 273 273 273 273 273 273 273 273 273 273 273 273 273 273 272 272 272 272 272 271 271 271 270 270 270 270 269 269 269 269 269 269 269 269 269 268 268 268 268 267 267 266 266 265 264 264 263 263 263
274 274 274 274 274 274 274 274 274 274 274 273 273 273 273 272 272 272 271 271 271 271 271 270 270 270 270 269 269 269 269 269 269 269 269 269 269 269 268 268 268 268 267 267 266 266 265 264 264 264 263 263
275 275 274 274 274 274 274 274 274 273 273 273 273 272 272 272 271 271 271 270 270 270 270 270 270 269 269 269 269 269 269 269 269 269 269 269 268 268 268 268 267 267 267 266 266 265 265 265 264 264 264 263
275 274 274 274 274 274 274 274 273 273 273 273 272 272 272 271 271 271 270 270 270 270 270 270 269 269 269 269 269 269 269 269 269 269 268 268 268 268 267 267 267 266 266 266 266 265 265 265 264 264 263 263
275 275 275 274 274 274 274 274 274 273 273 273 272 272 271 271 271 271 270 270 270 270 270 270 270 269 269 269 269 269 269 268 268 268 268 268 267 267 267 266 266 266 265 265 265 265 265 264 264 264 263 263
275 275 275 275 275 274 274 274 274 273 273 273 272 272 272 271 271 271 271 270 270 270 270 270 269 269 269 269 269 269 268 268 268 268 268 267 267 267 266 266 266 266 266 265 265 265 264 264 264 263 263 263
275 275 275 275 275 275 274 274 274 273 273 273 272 272 271 271 271 271 270 270 270 270 269 269 269 269 269 268 268 268 268 268 268 267 267 267 267 266 266 266 266 266 266 265 265 264 264 264 263 263 263 262
275 274 274 274 274 274 274 274 273 273 272 272 272 272 271 271 271 270 270 270 269 269 269 269 269 268 268 268 268 267 267 267 267 267 267 267 267 267 266 266 266 266 265 265 265 264 264 263 263 262 262 262
274 274 274 274 273 273 273 273 272 272 272 272 271 271 271 271 270 270 270 269 269 269 269 269 268 268 268 267 267 267 267 267 267 267 267 266 266 266 266 265 265 265 265 264 264 263 263 262 261 261 261 261
273 273 273 273 273 272 272 272 272 272 271 271 271 271 271 270 270 270 270 269 269 269 269 268 268 268 267 267 267 266 266 266 266 266 266 266 265 265 265 264 264 263 263 263 263 262 262 261 261 260 260 260
273 273 273 273 272 272 272 272 272 271 271 271 271 271 270 270 270 270 269 269 269 269 268 268 268 267 267 267 266 266 266 266 265 265 265 265 264 264 264 263 263 262 262 262 262 262 261 261 261 260 259 259